TimeCDT,TemperatureF,Dew PointF,Humidity,Sea Level PressureIn,VisibilityMPH,Wind Direction,Wind SpeedMPH,Gust SpeedMPH,PrecipitationIn,Events,Conditions,WindDirDegrees,DateUTC
12:15 AM,63.7,62.8,97,29.76,7.0,NW,6.9,-,N/A,,Clear,310,2013-09-20 05:15:00
12:35 AM,63.1,62.6,98,29.76,7.0,West,5.8,-,N/A,,Clear,270,2013-09-20 05:35:00
12:55 AM,62.6,61.9,97,29.77,5.0,West,5.8,-,N/A,,Clear,270,2013-09-20 05:55:00
1:15 AM,62.2,61.9,99,29.78,5.0,WSW,6.9,-,N/A,,Clear,250,2013-09-20 06:15:00
1:35 AM,62.2,61.9,99,29.78,5.0,West,6.9,-,N/A,,Clear,270,2013-09-20 06:35:00
1:55 AM,61.7,60.4,96,29.79,10.0,West,8.1,-,N/A,,Clear,270,2013-09-20 06:55:00
2:15 AM,60.8,59.4,95,29.79,10.0,West,8.1,-,N/A,,Clear,280,2013-09-20 07:15:00
2:35 AM,60.1,57.7,92,29.79,10.0,West,6.9,-,N/A,,Clear,280,2013-09-20 07:35:00
2:55 AM,59.5,56.5,90,29.79,10.0,West,8.1,-,N/A,,Clear,280,2013-09-20 07:55:00
3:15 AM,59.0,55.9,90,29.79,10.0,West,8.1,-,N/A,,Clear,270,2013-09-20 08:15:00
3:35 AM,59.0,55.4,88,29.80,10.0,West,9.2,-,N/A,,Scattered Clouds,270,2013-09-20 08:35:00
3:55 AM,58.6,54.9,87,29.81,10.0,West,11.5,-,N/A,,Overcast,270,2013-09-20 08:55:00
4:15 AM,57.7,55.2,91,29.80,10.0,WNW,9.2,-,N/A,Rain,Light Rain,300,2013-09-20 09:15:00
4:35 AM,57.2,55.0,92,29.80,10.0,West,9.2,-,N/A,,Mostly Cloudy,280,2013-09-20 09:35:00
4:55 AM,56.8,55.0,94,29.80,10.0,West,6.9,-,N/A,,Overcast,280,2013-09-20 09:55:00
5:15 AM,57.0,55.4,94,29.80,10.0,West,5.8,-,N/A,,Overcast,270,2013-09-20 10:15:00
5:35 AM,57.2,55.4,94,29.79,10.0,West,8.1,-,N/A,,Overcast,280,2013-09-20 10:35:00
5:55 AM,57.2,55.0,92,29.79,10.0,West,10.4,-,N/A,,Overcast,270,2013-09-20 10:55:00
6:15 AM,57.2,54.7,91,29.79,10.0,West,10.4,17.3,N/A,,Overcast,270,2013-09-20 11:15:00
6:35 AM,56.8,54.5,92,29.79,10.0,West,11.5,-,N/A,,Overcast,270,2013-09-20 11:35:00
6:55 AM,56.7,54.1,91,29.80,10.0,West,9.2,-,N/A,,Overcast,280,2013-09-20 11:55:00
7:15 AM,56.5,54.1,92,29.81,10.0,West,9.2,-,N/A,,Overcast,270,2013-09-20 12:15:00
7:35 AM,56.5,54.0,91,29.82,10.0,West,9.2,-,N/A,,Overcast,280,2013-09-20 12:35:00
7:55 AM,56.5,54.1,92,29.82,10.0,West,8.1,-,N/A,,Overcast,270,2013-09-20 12:55:00
8:15 AM,56.7,54.1,91,29.82,10.0,West,9.2,-,N/A,,Overcast,260,2013-09-20 13:15:00
8:35 AM,56.8,54.3,91,29.82,10.0,West,8.1,-,N/A,,Overcast,260,2013-09-20 13:35:00
8:55 AM,57.2,54.3,90,29.82,10.0,West,11.5,16.1,N/A,,Overcast,260,2013-09-20 13:55:00
9:15 AM,57.2,54.0,89,29.82,10.0,West,13.8,17.3,N/A,,Overcast,260,2013-09-20 14:15:00
9:35 AM,56.5,55.0,95,29.83,10.0,West,11.5,16.1,N/A,,Overcast,260,2013-09-20 14:35:00
9:55 AM,57.6,55.2,92,29.83,10.0,West,9.2,-,N/A,,Overcast,270,2013-09-20 14:55:00
10:15 AM,58.3,55.2,90,29.83,10.0,West,8.1,-,N/A,,Overcast,270,2013-09-20 15:15:00
10:35 AM,59.7,55.4,86,29.83,10.0,WNW,11.5,18.4,N/A,,Overcast,290,2013-09-20 15:35:00
10:55 AM,59.5,55.0,85,29.83,10.0,West,11.5,-,N/A,,Overcast,280,2013-09-20 15:55:00
11:15 AM,61.0,55.6,82,29.83,10.0,West,10.4,-,N/A,,Overcast,280,2013-09-20 16:15:00
11:35 AM,60.8,55.4,82,29.83,10.0,WNW,15.0,-,N/A,,Overcast,300,2013-09-20 16:35:00
11:55 AM,63.1,54.9,74,29.83,10.0,WNW,13.8,19.6,N/A,,Overcast,290,2013-09-20 16:55:00
12:15 PM,58.1,56.7,95,29.84,5.0,WNW,11.5,-,0.02,Rain,Light Rain,300,2013-09-20 17:15:00
12:35 PM,57.9,55.6,92,29.84,10.0,WNW,10.4,19.6,0.02,,Overcast,300,2013-09-20 17:35:00
12:55 PM,58.3,54.7,88,29.85,10.0,NW,15.0,20.7,0.02,,Overcast,310,2013-09-20 17:55:00
1:15 PM,59.9,53.2,79,29.85,10.0,WNW,13.8,-,N/A,,Overcast,290,2013-09-20 18:15:00
1:35 PM,59.7,51.6,75,29.85,10.0,NW,15.0,19.6,N/A,,Overcast,310,2013-09-20 18:35:00
1:55 PM,60.8,50.9,70,29.84,10.0,NW,16.1,21.9,N/A,,Overcast,320,2013-09-20 18:55:00
2:15 PM,61.5,50.0,66,29.84,10.0,WNW,15.0,20.7,N/A,,Overcast,300,2013-09-20 19:15:00
2:35 PM,63.1,49.1,60,29.84,10.0,WNW,13.8,19.6,N/A,,Overcast,300,2013-09-20 19:35:00
2:55 PM,61.9,48.9,62,29.84,10.0,WNW,13.8,19.6,N/A,,Mostly Cloudy,290,2013-09-20 19:55:00
3:15 PM,62.8,47.5,57,29.84,10.0,NW,17.3,25.3,N/A,,Scattered Clouds,310,2013-09-20 20:15:00
3:35 PM,63.5,47.5,56,29.85,10.0,NW,13.8,23.0,N/A,,Scattered Clouds,310,2013-09-20 20:35:00
3:55 PM,62.4,46.4,56,29.85,10.0,NW,12.7,17.3,N/A,,Scattered Clouds,310,2013-09-20 20:55:00
4:15 PM,63.9,46.8,54,29.84,10.0,NNW,13.8,17.3,N/A,,Mostly Cloudy,330,2013-09-20 21:15:00
4:35 PM,63.3,45.3,52,29.84,10.0,NNW,13.8,-,N/A,,Mostly Cloudy,330,2013-09-20 21:35:00
4:55 PM,61.5,44.2,53,29.85,10.0,NW,12.7,17.3,N/A,,Overcast,320,2013-09-20 21:55:00
5:15 PM,60.8,45.3,57,29.85,10.0,NW,8.1,-,N/A,,Overcast,310,2013-09-20 22:15:00
5:35 PM,62.8,46.2,55,29.85,10.0,NW,9.2,-,N/A,,Overcast,310,2013-09-20 22:35:00
5:55 PM,61.7,45.0,54,29.85,10.0,WNW,10.4,-,N/A,,Overcast,290,2013-09-20 22:55:00
6:15 PM,60.3,45.0,57,29.86,10.0,WNW,9.2,-,N/A,,Mostly Cloudy,300,2013-09-20 23:15:00
6:35 PM,58.6,46.8,65,29.87,10.0,NW,20.7,25.3,N/A,,Mostly Cloudy,320,2013-09-20 23:35:00
6:55 PM,54.0,49.8,86,29.87,10.0,NW,9.2,-,0.01,Rain,Light Rain,320,2013-09-20 23:55:00
7:15 PM,53.6,50.9,91,29.88,10.0,NW,5.8,-,N/A,,Overcast,310,2013-09-21 00:15:00
7:35 PM,53.2,50.2,89,29.88,10.0,WNW,4.6,-,N/A,,Overcast,300,2013-09-21 00:35:00
7:55 PM,53.6,49.3,85,29.89,10.0,NW,8.1,-,N/A,,Overcast,310,2013-09-21 00:55:00
8:15 PM,53.2,49.1,86,29.89,10.0,WNW,8.1,-,N/A,,Light Drizzle,290,2013-09-21 01:15:00
8:35 PM,52.7,49.1,88,29.90,10.0,WNW,5.8,-,N/A,,Overcast,290,2013-09-21 01:35:00
8:55 PM,52.7,49.1,88,29.90,10.0,WNW,8.1,-,N/A,,Overcast,290,2013-09-21 01:55:00
9:15 PM,52.0,48.7,89,29.90,10.0,West,5.8,-,N/A,,Scattered Clouds,280,2013-09-21 02:15:00
9:35 PM,51.8,48.4,88,29.91,10.0,WNW,8.1,-,N/A,,Clear,300,2013-09-21 02:35:00
9:55 PM,51.3,49.1,92,29.91,10.0,WNW,5.8,-,N/A,,Scattered Clouds,290,2013-09-21 02:55:00
10:15 PM,50.9,49.1,94,29.91,10.0,WNW,6.9,-,N/A,,Scattered Clouds,300,2013-09-21 03:15:00
10:35 PM,50.2,48.6,94,29.92,10.0,WNW,4.6,-,N/A,,Clear,290,2013-09-21 03:35:00
10:55 PM,50.0,48.4,94,29.92,10.0,WNW,5.8,-,N/A,,Clear,290,2013-09-21 03:55:00
11:15 PM,49.6,48.2,95,29.92,10.0,WNW,5.8,-,N/A,,Clear,290,2013-09-21 04:15:00
11:35 PM,48.7,47.5,95,29.92,10.0,West,5.8,-,N/A,,Clear,280,2013-09-21 04:35:00
11:55 PM,47.8,46.9,97,29.92,10.0,West,4.6,-,N/A,,Clear,270,2013-09-21 04:55:00